[[{"header":{"parameterUnit":"m.s-1","parameterCategory":1,"la1":30.2991,"la2":30.254,"lo1":-89.0895,"lo2":-89.0444,"dy":0.0017,"dx":0.0017,"nx":28,"ny":28,"refTime":"2024-06-25T21:00:00:Z","depth":0,"parameterNumber":2,"parameterNumberName":"U-component_of_WINDS"},"data":[0,0,0,0,0,0,0,0,0,0,0,0,0,0,0,0,0,0,0,0,0,0,0,0,0,0,0,0,0,0,0,0,0,0,0,0,0,0,0,0,0,0,0,0,0,0,0,0,0,0,0,0,0,0,0,0,0,0,7.1377,7.1379,0,7.1598,7.1601,7.1603,7.1553,7.1548,7.1544,7.154,7.1768,7.1778,7.1788,0,0,0,0,0,0,0,0,0,0,0,0,0,7.0909,7.0918,7.1377,7.138,7.1382,7.1598,7.1601,7.1604,7.1553,7.1548,7.1543,7.1538,7.1765,7.1777,7.1789,0,0,0,0,0,0,0,0,0,0,0,0,0,7.112,7.0921,7.1376,7.1383,7.1386,7.1597,7.1601,7.1605,7.1554,7.1548,7.1542,7.1536,7.1761,7.1776,7.179,7.2009,0,0,7.1836,7.1843,0,0,0,0,0,0,0,0,7.1108,7.1137,7.1379,7.1383,7.1386,7.1541,7.152,7.174,7.1556,7.1491,7.154,7.1533,7.1698,7.1718,7.1773,7.202,7.203,7.1838,7.1847,7.1853,7.1857,0,0,0,0,0,0,0,7.1093,7.1127,7.1464,7.1383,7.1387,7.1375,7.1398,7.1561,7.1627,7.1496,7.1493,7.1519,7.1699,7.1759,7.1778,7.2033,7.1837,7.185,7.186,7.1866,7.2466,7.2473,0,0,0,0,0,0,7.1076,7.1115,7.1457,7.1471,7.1229,7.1388,7.1414,7.1498,7.1625,7.1638,7.1525,7.1516,7.1736,7.1761,7.1786,7.2047,7.1853,7.1867,7.1876,7.2459,7.2468,7.2475,0,0,0,0,0,0,7.1066,7.1107,7.1448,7.1292,7.1335,7.1403,7.1498,7.1506,7.1566,7.1647,7.1658,7.1574,7.1732,7.1765,7.1953,7.2054,7.1874,7.1887,7.2451,7.2462,7.2471,7.2573,0,0,0,0,0,0,7.1053,7.1103,7.1188,7.1295,7.1343,7.1612,7.1504,7.1515,7.1591,7.1583,7.1696,7.1709,7.173,7.1931,7.1968,7.2072,7.1899,7.2442,7.2456,7.2468,7.2561,7.2585,7.2607,0,0,0,0,0,7.1036,7.1209,7.1192,7.1234,7.145,7.1618,7.1646,7.1666,7.16,7.1684,7.1736,7.1705,7.2038,7.1951,7.1992,7.2102,7.2436,7.2452,7.2467,7.255,7.2581,7.2606,0,0,0,0,0,0,7.1113,7.1223,7.1206,7.1418,7.1509,7.1609,7.1717,7.1698,7.1811,7.1798,7.1819,7.1845,7.2035,7.2088,7.1989,7.2318,7.2227,7.2252,7.2276,7.2306,7.2328,7.231,7.1912,0,0,0,0,0,7.1154,7.1282,7.1371,7.155,7.1596,7.1649,7.1723,7.173,7.1826,7.1864,7.193,7.2023,7.2148,7.223,7.2351,7.2569,7.2591,7.2665,7.2687,7.2706,7.2726,7.2841,7.2874,7.2527,7.2527,7.2526,0,0,7.1241,7.1317,7.1397,7.1567,7.1638,7.1768,7.1682,7.1824,7.1921,7.1886,7.2066,7.2118,7.2224,7.2427,7.2519,7.2476,7.2827,7.2726,7.274,7.275,7.2861,7.2894,7.2923,7.2537,7.2535,7.2534,0,0,7.1466,7.1538,7.1692,7.1765,7.1873,7.1907,7.1944,7.2048,7.208,7.2261,7.2236,7.2352,7.2568,7.2643,7.271,7.296,7.2935,7.2999,7.3118,7.323,7.3258,7.3282,7.3368,7.3399,7.302,7.302,7.302,0,7.156,7.1756,7.1774,7.1918,7.1992,7.1966,7.2121,7.2192,7.2335,7.2386,7.2336,7.2604,7.2674,7.2892,7.2953,7.3009,7.305,7.2985,7.3252,7.3277,7.33,7.3382,7.3414,7.3027,7.3026,7.3025,7.3025,0,7.1864,7.2,7.2112,7.2248,7.2336,7.2486,7.2525,7.2612,7.2612,7.265,7.2833,7.2916,7.305,7.3104,7.3106,7.3322,7.3291,7.3247,7.3155,7.3339,7.3416,7.3448,7.3037,7.3034,7.3032,7.303,0,0,7.2143,7.2286,7.2326,7.2386,7.2503,7.2608,7.2756,7.2886,7.2958,7.3058,7.318,7.3362,7.3321,7.3397,7.3407,7.3506,7.3694,7.3449,7.3452,7.3488,7.3933,7.3962,7.3998,7.3679,7.3685,7.369,7.3922,0,7.2375,7.2633,7.2653,7.2886,7.3009,7.2986,7.3114,7.3199,7.3239,7.3349,7.3393,7.3521,7.3459,7.3503,7.3601,7.3651,7.3783,7.3635,7.3791,7.3796,7.3761,7.404,7.4072,7.4287,7.3953,7.3958,7.3962,0,7.268,7.2786,7.303,7.3126,7.3179,7.3294,7.3413,7.352,7.3615,7.3637,7.372,7.3716,7.3866,7.3771,7.3976,7.3875,7.394,7.3974,7.3983,7.3996,7.3888,7.4056,7.4357,7.4387,7.401,7.4007,7.4003,0,7.2853,7.3058,7.3229,7.3282,7.34,7.348,7.3533,7.3622,7.3698,7.3803,7.3852,7.3974,7.4039,7.4133,7.4161,7.409,7.4364,7.4273,7.4384,7.4384,7.4441,7.4436,7.4752,7.4489,7.4489,7.4488,7.4488,0,7.3108,7.3257,7.3308,7.3413,7.3579,7.3601,7.3764,7.3813,7.3892,7.4005,7.3993,7.41,7.4132,7.4244,7.4268,7.4432,7.4463,7.4483,7.4487,7.4482,7.4479,7.4523,7.4507,7.4497,7.4495,7.4493,7.4492,0,7.3328,7.3369,7.3553,7.3649,7.3677,7.3794,7.3876,7.3976,7.4014,7.4157,7.4192,7.4251,7.4382,7.442,7.4578,7.4594,7.4785,7.4777,7.4752,7.4751,7.4859,7.4846,7.5211,7.5258,7.4968,7.4971,7.4973,0,7.3486,7.36,7.3708,7.3782,7.3838,7.3959,7.4035,7.4061,7.4141,7.4257,7.4343,7.4472,7.4576,7.4786,7.4842,7.4962,7.4955,7.5075,7.4973,7.4963,7.4952,7.4943,7.4953,7.5093,7.5096,7.5098,7.51,0,7.3761,7.3775,7.3886,7.4003,7.4095,7.4189,7.4279,7.4341,7.4379,7.447,7.4603,7.4684,7.4843,7.497,7.5092,7.5145,7.5129,7.5132,7.5163,7.5158,7.5137,7.5145,7.48,7.5123,7.5121,7.5119,7.5118,7.5117,7.3953,7.4051,7.4141,7.4264,7.4335,7.4419,7.4516,7.4565,7.4676,7.4807,7.4816,7.4959,7.5049,7.521,7.527,7.5381,7.5346,7.5393,7.5404,7.5414,7.5421,7.5122,7.5404,7.5404,7.5403,7.5403,7.5402,0,7.4223,7.4279,7.4393,7.4518,7.4614,7.459,7.4689,7.477,7.4896,7.4981,7.5083,7.5234,7.5357,7.5423,7.5544,7.5621,7.5616,7.5651,7.5644,7.5656,7.5448,7.5406,7.5653,7.5653,7.5653,7.5653,7.5653,7.5653,7.4375,7.4539,7.4563,7.4761,7.4817,7.4955,7.5013,7.509,7.5157,7.5326,7.5427,7.5469,7.5546,7.5673,7.5783,7.5799,7.5843,7.5882,7.5894,7.5697,7.5671,7.5647,7.5607,7.5893,7.5893,7.6092,7.6094,7.6095]},{"header":{"parameterUnit":"m.s-1","parameterCategory":1,"la1":30.2991,"la2":30.254,"lo1":-89.0895,"lo2":-89.0444,"dy":0.0017,"dx":0.0017,"nx":28,"ny":28,"refTime":"2024-06-25T21:00:00:Z","depth":0,"parameterNumber":3,"parameterNumberName":"V-component_of_WINDS"},"data":[0,0,0,0,0,0,0,0,0,0,0,0,0,0,0,0,0,0,0,0,0,0,0,0,0,0,0,0,0,0,0,0,0,0,0,0,0,0,0,0,0,0,0,0,0,0,0,0,0,0,0,0,0,0,0,0,0,0,2.9591,2.9592,0,2.9707,2.9709,2.971,2.9693,2.9691,2.9689,2.9687,2.9806,2.9811,2.9815,0,0,0,0,0,0,0,0,0,0,0,0,0,2.9352,2.9357,2.9591,2.9593,2.9594,2.9707,2.9709,2.971,2.9693,2.9691,2.9688,2.9686,2.9804,2.981,2.9816,0,0,0,0,0,0,0,0,0,0,0,0,0,2.9461,2.9358,2.9591,2.9599,2.9601,2.9707,2.9709,2.9711,2.9694,2.9691,2.9688,2.9685,2.9802,2.9809,2.9817,2.9922,0,0,2.984,2.9843,0,0,0,0,0,0,0,0,2.9455,2.947,2.9596,2.9599,2.9601,2.9683,2.9668,2.9782,2.9694,2.9658,2.9687,2.9684,2.9767,2.9777,2.9806,2.9927,2.9933,2.984,2.9845,2.9848,2.985,0,0,0,0,0,0,0,2.9447,2.9465,2.9637,2.9598,2.9601,2.9596,2.9609,2.969,2.9728,2.9661,2.966,2.9674,2.9768,2.9798,2.9808,2.9934,2.984,2.9847,2.9851,2.9854,3.0147,3.015,0,0,0,0,0,0,2.9438,2.9459,2.9633,2.9641,2.9519,2.9603,2.9617,2.9659,2.9727,2.9734,2.9677,2.9673,2.9787,2.9799,2.9812,2.9939,2.9848,2.9855,2.9859,3.0143,3.0147,3.0151,0,0,0,0,0,0,2.9433,2.9454,2.9629,2.9549,2.9571,2.961,2.9658,2.9663,2.9694,2.9739,2.9745,2.9701,2.9785,2.9802,2.9894,2.9943,2.9858,2.9865,3.014,3.0145,3.0149,3.0194,0,0,0,0,0,0,2.9426,2.9452,2.9493,2.955,2.9576,2.971,2.9661,2.9668,2.9707,2.9703,2.9763,2.977,2.9784,2.9883,2.9902,2.9952,2.9871,3.0135,3.0142,3.0148,3.0189,3.02,3.021,0,0,0,0,0,2.9418,2.9501,2.9495,2.9516,2.9628,2.9713,2.9727,2.9741,2.9711,2.9752,2.978,2.9768,2.9935,2.9893,2.9914,2.9967,3.0132,3.014,3.0147,3.0184,3.0198,3.021,0,0,0,0,0,0,2.9448,2.9509,2.9503,2.9607,2.9655,2.9709,2.9762,2.9756,2.9813,2.9807,2.9822,2.9836,2.993,2.9957,2.991,3.0071,3.0029,3.0041,3.005,3.0064,3.0074,3.0066,2.9877,0,0,0,0,0,2.9467,2.9531,2.9581,2.9668,2.9692,2.9723,2.9761,2.9767,2.9817,2.9837,2.9872,2.9921,2.9984,3.0025,3.0086,3.0192,3.0205,3.0239,3.0249,3.0258,3.0268,3.0325,3.0341,3.0175,3.0175,3.0175,0,0,2.9507,2.9548,2.9588,2.9675,2.9713,2.9779,2.974,2.9812,2.986,2.9848,2.9938,2.9965,3.002,3.012,3.0166,3.0146,3.0316,3.0267,3.0274,3.0279,3.0335,3.035,3.0364,3.018,3.0179,3.0179,0,0,2.9613,2.9651,2.9728,2.9766,2.9823,2.9843,2.9861,2.9916,2.9934,3.0024,3.0016,3.0074,3.0182,3.0221,3.0256,3.0375,3.0366,3.0394,3.045,3.0506,3.0519,3.053,3.0573,3.0588,3.0404,3.0404,3.0404,0,2.9656,2.9755,2.9768,2.984,2.9878,2.987,2.9947,2.9983,3.0058,3.0084,3.0061,3.0196,3.0232,3.0341,3.0369,3.0398,3.0418,3.0388,3.0516,3.0528,3.0539,3.0579,3.0595,3.0407,3.0407,3.0406,3.0406,0,2.9804,2.9872,2.9927,2.9999,3.0043,3.0118,3.0141,3.0185,3.0187,3.0209,3.03,3.0343,3.0412,3.0438,3.0441,3.0547,3.0532,3.0512,3.0471,3.0557,3.0596,3.0611,3.0411,3.041,3.0409,3.0409,0,0,2.9934,3.0011,3.0031,3.0063,3.0124,3.0178,3.0251,3.0318,3.0354,3.0405,3.0467,3.0558,3.0539,3.0578,3.0585,3.0634,3.0725,3.0608,3.061,3.0628,3.0843,3.0858,3.0876,3.0719,3.0722,3.0725,3.0839,0,3.0046,3.0176,3.019,3.0306,3.0369,3.0361,3.0424,3.0469,3.0491,3.0547,3.057,3.0635,3.0606,3.0629,3.0677,3.0704,3.0769,3.0696,3.0776,3.0779,3.0763,3.0896,3.0913,3.1018,3.0854,3.0856,3.0858,0,3.0195,3.025,3.0372,3.0424,3.0451,3.0508,3.057,3.0624,3.0674,3.0686,3.0729,3.0729,3.0804,3.0758,3.0861,3.0811,3.0844,3.0863,3.0867,3.0875,3.0824,3.0908,3.1052,3.1068,3.0882,3.088,3.0878,0,3.0277,3.0382,3.0468,3.0496,3.0559,3.0599,3.0627,3.0674,3.0713,3.0766,3.0792,3.0853,3.0887,3.0934,3.0951,3.0917,3.1053,3.1009,3.1065,3.1065,3.1095,3.1093,3.1246,3.1116,3.1115,3.1115,3.1115,0,3.0402,3.0477,3.0506,3.056,3.0643,3.0657,3.0739,3.0765,3.0806,3.0864,3.086,3.0914,3.0933,3.099,3.1003,3.1086,3.1101,3.1112,3.1115,3.1113,3.1112,3.1136,3.1129,3.1119,3.1118,3.1118,3.1117,0,3.0508,3.0531,3.0625,3.0676,3.0691,3.075,3.0794,3.0845,3.0865,3.0938,3.0956,3.0988,3.1054,3.1075,3.1156,3.1165,3.1261,3.1257,3.1245,3.1245,3.13,3.1294,3.1475,3.1499,3.1352,3.1353,3.1354,0,3.0586,3.0644,3.0701,3.0739,3.0769,3.0831,3.087,3.0885,3.0927,3.0987,3.103,3.1096,3.115,3.1257,3.1287,3.1348,3.1345,3.1404,3.1355,3.135,3.1346,3.1343,3.1348,3.1414,3.1415,3.1417,3.1418,0,3.0722,3.073,3.0787,3.0849,3.0896,3.0945,3.0992,3.1023,3.1045,3.1092,3.116,3.1201,3.1283,3.1348,3.141,3.1438,3.1432,3.1433,3.1449,3.1448,3.1438,3.1444,3.127,3.1429,3.1428,3.1427,3.1426,3.1426,3.0817,3.0867,3.0915,3.0979,3.1016,3.1059,3.111,3.1136,3.1193,3.1261,3.1266,3.1339,3.1386,3.1469,3.15,3.1557,3.154,3.1563,3.1569,3.1575,3.1579,3.1428,3.1568,3.1568,3.1567,3.1567,3.1567,0,3.0952,3.0982,3.1041,3.1106,3.1156,3.1145,3.1196,3.1239,3.1304,3.1348,3.14,3.1478,3.1541,3.1575,3.1638,3.1677,3.1675,3.1693,3.169,3.1697,3.1591,3.1571,3.1693,3.1693,3.1693,3.1693,3.1693,3.1693,3.1028,3.1113,3.1127,3.1229,3.1258,3.133,3.136,3.14,3.1436,3.1523,3.1575,3.1597,3.1637,3.1702,3.1759,3.1767,3.1791,3.181,3.1817,3.1717,3.1704,3.1692,3.1673,3.1815,3.1815,3.1918,3.1919,3.1919]}]]